Helicity
53 58 59 60 56 60 60 58 54 45 30 26 22 22 20 12 10 7 8 4 -1 -1 5 17 23 28 23 29 15 1 3 -1 6 7 12 -4 2 3 1 10 11 13 10 11 11 3 -7
54 55 60 65 65 66 62 60 54 43 37 29 19 25 28 22 19 18 14 11 5 2 9 20 33 28 37 40 9 8 10 11 12 5 0 -5 -12 -15 0 -11 -8 -10 -13 -13 -6 -3 3
55 62 67 67 69 67 63 61 60 55 43 31 22 29 30 25 25 25 20 8 7 16 23 36 37 33 41 18 2 3 21 12 6 1 2 -1 -7 -2 -2 4 -8 -2 -1 5 27 11 13
61 68 72 75 76 73 69 63 62 60 51 34 26 19 27 22 14 7 17 12 13 17 36 49 42 39 21 15 4 13 16 15 21 12 22 17 19 36 16 8 19 15 28 21 19 25 21
56 63 68 76 77 75 76 69 63 56 51 38 26 22 23 16 6 15 22 21 38 25 31 38 57 39 -1 3 -12 2 18 12 10 30 42 39 45 41 35 31 33 42 10 22 16 41 16
60 64 75 79 79 77 76 76 67 60 53 43 26 21 24 20 26 27 29 25 54 53 49 48 55 33 11 -6 -12 11 18 31 31 33 40 51 54 54 55 47 14 15 22 24 26 32 34
72 66 71 76 79 78 78 80 78 72 62 48 31 23 25 32 35 31 31 45 51 51 96 59 49 29 12 -8 2 24 30 28 36 63 50 54 73 45 40 42 53 62 46 40 35 51 14
81 76 69 69 73 79 80 81 80 75 66 54 36 24 24 29 28 29 32 54 46 46 46 53 55 44 28 16 2 25 51 40 60 64 61 81 60 61 81 65 61 61 45 27 37 62 17
76 77 71 70 70 78 81 78 80 80 77 60 38 29 28 23 14 31 36 39 28 34 53 49 60 49 39 33 19 27 52 44 72 79 88 82 78 88 72 65 65 54 65 62 52 26 59
80 78 78 75 75 79 84 87 83 78 73 65 44 32 36 18 44 19 37 19 23 24 68 51 59 55 56 49 41 48 55 53 73 70 89 92 92 83 84 66 89 61 94 86 66 55 52
82 78 76 74 80 82 82 87 84 82 77 62 45 29 31 38 31 42 30 22 17 27 69 38 44 28 48 75 60 55 45 54 78 96 117 91 99 94 80 79 87 85 95 78 95 96 94
82 81 82 82 80 79 81 87 90 82 72 57 43 34 22 38 46 31 29 35 40 84 67 56 44 44 54 66 68 58 69 94 90 122 165 136 103 113 111 116 108 108 110 111 113 98 102
76 80 86 87 84 82 87 88 86 82 71 55 34 37 38 32 37 34 41 51 84 99 59 70 69 79 77 78 77 84 84 101 111 128 117 121 112 133 121 123 125 138 125 68 88 102 63
83 83 88 90 93 92 90 94 92 86 78 57 23 37 49 34 34 43 62 89 84 67 63 66 63 57 65 79 69 85 97 97 105 149 147 117 112 111 114 128 118 140 134 121 77 93 153
96 95 94 99 101 98 95 93 98 86 73 31 30 39 48 54 38 55 93 111 62 57 71 85 63 76 75 77 86 96 69 87 78 89 118 132 130 139 166 169 165 135 150 168 224 208 218
101 104 107 109 103 97 91 86 88 81 63 10 34 46 56 53 42 75 104 72 85 85 80 74 69 100 88 77 93 93 83 79 96 112 115 128 160 160 175 188 227 207 222 241 251 175 150
101 106 112 120 115 106 98 90 90 87 60 0 45 62 34 47 49 110 96 82 93 94 93 98 98 116 103 98 106 106 109 90 113 122 157 151 188 178 186 140 147 257 293 312 280 342 279
113 118 121 124 122 116 110 106 89 86 73 49 50 65 39 46 91 93 104 91 88 88 90 101 100 100 105 113 105 107 121 134 125 119 128 162 176 193 160 238 252 298 277 294 322 288 411
114 121 125 129 130 133 130 127 125 96 53 32 53 48 50 58 94 91 78 94 95 99 95 105 115 100 118 120 124 112 130 151 148 166 161 138 202 229 210 214 222 218 237 335 382 440 455
108 110 120 128 128 136 147 146 140 116 50 38 56 72 80 93 88 96 100 97 104 99 103 120 129 140 151 148 154 196 179 181 151 174 194 207 291 298 260 217 224 277 291 316 437 530 461
103 107 108 111 122 137 152 168 166 133 43 35 63 66 62 90 108 101 103 118 121 139 142 140 151 170 182 198 176 158 188 233 192 175 217 241 247 248 243 233 274 269 358 368 419 420 395
93 91 94 116 141 153 164 184 226 186 34 47 69 84 80 89 89 107 125 131 142 157 171 192 202 220 182 194 202 197 195 167 150 214 225 249 282 274 275 212 221 241 276 297 309 258 293
94 120 114 113 128 122 135 174 220 269 63 41 55 71 86 117 132 149 179 200 206 179 193 217 200 176 178 173 153 140 155 170 169 221 208 254 274 240 193 174 181 261 183 174 156 304 247
89 101 95 100 115 131 147 161 163 182 80 2 20 39 113 112 147 160 188 146 162 139 133 135 148 150 166 129 110 115 138 127 144 134 219 231 254 251 245 228 283 317 187 176 208 287 270
89 85 90 106 108 100 87 69 67 46 22 -53 -23 -2 22 43 49 81 100 88 88 100 119 110 133 101 83 90 103 111 86 131 127 191 201 153 172 240 267 237 240 289 198 183 181 209 274
77 78 75 49 37 40 42 46 44 54 23 -30 -9 -30 -11 20 3 15 30 56 53 68 84 84 75 65 98 110 110 128 78 114 158 193 172 136 105 210 283 304 310 240 162 188 224 297 101
32 27 24 30 35 42 46 44 45 47 34 -13 -21 -6 4 10 3 29 20 20 33 43 36 51 67 79 82 102 104 79 82 106 105 119 146 148 176 174 173 208 287 142 142 54 298 176 108
24 24 28 27 26 31 35 37 40 40 40 9 -16 6 21 27 19 48 32 33 55 60 50 31 58 56 82 83 54 42 78 63 116 122 102 119 121 147 207 257 233 185 151 162 97 135 228
21 18 13 11 19 23 25 29 29 31 28 29 25 25 42 62 57 72 86 75 82 81 85 76 62 64 87 71 88 98 116 135 133 141 110 120 81 148 157 205 63 -9 -22 119 287 333 355
Wind_Speed
26 25 25 26 27 28 30 32 34 36 38 40 42 44 46 45 42 40 39 40 39 38 35 36 37 38 30 29 29 36 43 39 33 32 33 31 31 30 31 30 31 31 31 33 35 38 41
27 27 27 28 29 30 32 34 36 39 41 42 44 47 48 46 45 43 41 43 41 39 35 37 35 33 30 27 30 39 39 34 36 33 33 33 31 31 30 30 31 30 31 33 34 39 43
28 28 29 30 31 33 35 37 40 42 44 45 47 49 50 49 48 45 43 43 38 39 36 34 33 30 27 24 29 39 37 31 34 32 31 32 31 32 31 30 32 32 33 37 37 43 45
29 30 31 32 33 36 38 40 43 45 47 48 49 50 51 50 49 47 46 41 34 35 31 31 30 30 26 25 27 35 37 29 33 31 30 31 31 32 34 31 35 36 35 43 42 48 45
30 32 32 34 36 38 40 43 45 48 49 50 50 51 51 51 49 47 46 38 26 32 30 30 31 30 25 25 25 30 35 28 28 29 31 31 32 33 35 36 38 40 44 46 48 47 51
31 33 34 36 38 40 42 45 47 49 51 51 51 51 51 50 47 47 43 28 26 28 31 31 31 29 26 25 25 29 32 31 27 27 28 32 34 35 38 39 44 45 47 47 49 50 55
33 34 35 37 40 42 44 47 49 51 52 53 51 50 50 48 46 45 33 28 27 31 32 29 28 26 29 29 26 29 34 28 28 30 27 34 33 40 36 38 37 38 43 49 47 47 64
34 35 37 38 41 43 46 48 50 52 53 53 51 50 50 49 43 38 34 31 30 29 32 32 30 29 29 30 25 30 36 25 27 29 32 35 37 31 33 37 40 41 49 51 47 48 63
33 36 37 40 42 44 47 49 51 52 53 53 51 50 50 49 35 37 35 32 32 33 34 34 32 31 29 30 25 27 34 26 28 31 35 34 35 32 35 41 43 44 45 46 51 64 50
34 36 38 40 43 45 48 50 51 53 54 54 52 50 49 42 32 35 35 33 33 34 36 33 31 31 30 28 27 31 32 28 29 30 34 38 31 34 40 44 40 50 40 45 56 63 55
34 36 38 41 43 46 48 51 52 54 55 54 52 49 46 40 32 36 33 34 33 33 40 32 30 30 30 27 29 30 33 30 28 31 34 41 35 39 44 43 36 45 44 50 52 53 53
33 36 38 41 44 47 49 52 54 56 57 55 51 49 42 38 36 34 33 33 33 37 35 33 32 32 32 30 31 33 35 36 32 36 39 38 33 37 38 38 39 40 47 54 50 50 51
32 35 38 41 44 47 51 53 56 57 58 55 50 45 39 37 36 34 32 33 38 31 36 35 33 34 35 34 37 39 40 40 40 46 45 43 39 37 34 40 39 41 53 66 63 61 59
31 35 38 42 45 49 52 55 57 59 60 56 45 38 39 40 36 32 31 35 37 35 35 38 38 41 40 40 40 41 40 40 34 37 46 52 57 34 36 38 45 45 48 56 74 70 68
31 35 39 43 46 50 53 56 59 60 61 53 39 38 38 46 38 32 31 37 37 37 38 42 44 46 43 38 37 42 40 42 37 29 38 44 50 38 39 38 41 46 50 44 59 63 71
31 36 40 44 48 52 55 58 61 62 62 49 40 38 42 46 38 34 35 39 39 38 41 42 46 41 46 44 46 46 45 39 41 36 37 45 61 45 42 41 44 43 39 58 56 74 80
32 37 41 46 50 54 57 60 63 64 63 46 41 40 43 46 37 38 40 40 42 40 40 42 44 47 47 51 47 48 48 46 42 42 41 43 51 57 48 47 49 49 54 51 55 55 74
34 38 43 48 52 56 60 63 66 66 64 46 40 44 44 41 41 40 40 39 39 41 40 43 43 44 47 46 50 48 50 48 39 39 50 45 56 66 64 52 48 51 55 48 62 69 63
35 40 45 50 55 59 63 66 68 66 59 46 44 43 40 39 43 44 43 43 43 44 44 43 44 42 44 49 56 49 51 48 41 44 50 43 57 74 71 61 54 57 54 54 58 63 72
38 42 47 52 57 62 65 67 68 66 56 43 43 48 44 41 38 42 48 48 46 42 46 46 48 47 51 56 49 59 57 53 47 50 48 49 62 67 77 79 70 74 67 60 61 76 84
39 44 49 54 59 63 67 68 69 66 53 43 46 44 43 48 49 48 48 50 54 55 47 47 52 53 56 63 66 64 59 61 54 51 52 56 80 75 79 80 80 85 80 71 72 75 87
41 46 50 55 60 64 66 68 71 68 49 43 47 47 44 45 47 48 51 54 55 56 56 57 57 60 60 66 66 83 81 72 73 62 61 61 88 83 99 87 88 95 84 79 80 83 87
41 47 51 57 61 64 68 69 71 71 52 43 45 43 43 49 49 51 52 55 56 59 56 52 65 70 73 70 70 70 66 66 67 70 71 71 76 85 107 85 90 97 79 74 75 74 77
43 47 52 56 61 63 67 70 69 70 60 44 45 43 47 53 51 52 54 54 59 57 61 64 64 66 60 70 71 65 65 68 68 69 63 73 74 79 101 91 108 85 63 61 69 69 61
46 48 52 56 60 63 66 67 69 67 63 57 52 47 46 46 47 46 54 53 55 58 57 58 53 58 65 65 72 75 70 66 60 56 56 52 60 76 85 90 93 86 70 65 68 70 50
48 51 54 56 58 61 64 66 68 68 65 55 61 51 47 47 48 46 52 52 56 59 57 52 55 58 59 58 63 74 80 74 69 68 55 54 55 67 78 94 106 78 63 57 56 73 40
50 51 54 56 58 60 62 64 66 68 67 57 58 59 49 50 44 48 50 53 50 55 57 57 62 58 55 62 67 69 71 63 74 75 77 75 72 78 85 93 82 66 53 46 77 73 40
48 51 54 56 58 61 63 65 66 67 68 57 56 60 52 51 45 46 44 49 51 53 61 58 60 56 59 61 63 65 68 66 71 66 75 79 83 87 80 91 106 51 59 68 59 45 41
49 52 55 57 60 62 64 66 67 67 66 56 55 55 49 51 52 38 40 41 45 44 51 52 53 53 52 58 59 60 69 67 72 88 61 76 59 76 72 75 66 61 61 51 43 37 34
Wind_Direction
299 301 303 306 306 308 309 307 310 309 306 310 315 317 319 323 331 337 340 340 345 343 356 347 340 347 25 30 33 13 348 1 18 23 10 2 346 345 337 343 340 341 350 345 337 329 329
300 301 304 308 309 309 310 313 317 314 314 317 320 324 325 328 328 326 330 323 335 334 349 334 343 3 21 24 28 2 349 10 3 14 12 4 2 3 357 349 346 353 341 331 337 334 338
302 302 305 308 309 311 315 319 320 320 319 319 322 324 323 322 321 322 318 321 338 330 332 342 354 13 23 33 28 4 354 18 9 12 17 6 3 354 359 352 351 339 321 333 330 333 336
302 302 304 307 311 313 316 320 323 325 323 321 321 319 317 315 315 318 309 325 337 332 341 350 359 11 20 34 30 9 347 15 337 357 13 13 360 3 341 351 329 325 326 319 333 328 342
304 303 304 306 311 315 317 320 324 324 324 320 320 319 316 312 312 315 314 331 341 333 344 348 349 1 15 36 48 19 355 22 8 6 357 2 350 343 336 332 323 320 318 322 329 343 343
303 302 304 308 311 315 318 321 322 323 323 321 319 318 316 313 319 321 323 1 345 339 338 344 341 352 4 18 33 4 355 351 18 21 13 352 341 336 328 327 316 318 323 329 332 338 339
301 303 305 311 312 315 318 320 321 321 322 320 318 315 312 316 326 327 351 359 351 335 329 334 343 348 350 3 16 4 346 1 2 359 6 347 347 331 334 335 337 339 335 331 338 341 331
302 303 308 313 315 315 318 320 320 320 320 319 316 312 312 317 331 349 351 348 343 336 334 327 328 331 339 355 13 358 337 5 355 347 345 340 336 347 344 338 336 335 328 330 339 344 335
303 304 308 313 317 318 318 319 320 319 318 317 314 313 314 318 348 353 354 352 339 332 329 327 323 323 328 342 360 356 343 3 355 344 337 336 337 344 337 332 328 331 334 336 335 330 345
304 306 310 313 316 318 317 318 318 318 317 317 314 316 318 334 354 353 346 353 343 340 329 330 329 324 325 334 340 341 344 355 353 347 342 335 344 336 330 326 333 326 339 337 333 332 335
304 307 312 314 317 318 317 317 316 317 317 316 314 318 326 345 357 344 350 349 346 344 325 337 335 336 332 333 337 340 342 346 344 341 338 327 333 329 324 327 336 330 335 333 334 333 333
308 309 313 315 317 319 318 317 317 316 316 315 314 321 335 343 348 353 352 350 347 330 323 332 336 334 331 329 328 330 332 336 341 333 332 328 341 333 330 333 333 336 332 331 333 332 328
313 314 315 317 318 320 320 319 319 318 317 316 320 331 344 345 339 350 354 347 331 328 331 328 332 334 330 326 323 323 323 323 322 320 319 323 324 331 336 327 332 332 327 321 321 322 321
318 320 320 320 321 322 322 321 321 320 319 319 332 343 345 346 344 348 346 335 325 331 328 330 329 326 324 325 323 323 325 324 326 324 319 314 311 326 331 327 324 325 325 319 314 316 317
321 323 325 324 324 324 324 324 323 323 322 327 346 342 342 335 340 345 338 323 323 327 329 326 326 322 323 329 328 326 324 321 325 325 318 318 314 326 328 328 329 326 319 328 319 318 314
326 328 328 328 327 326 326 326 326 326 326 337 341 337 334 333 340 337 327 319 322 327 327 327 320 324 319 322 322 322 321 326 323 323 322 318 311 319 321 325 324 319 328 318 319 312 311
332 330 331 331 329 328 328 328 327 326 327 343 340 334 335 336 339 328 318 319 322 327 328 324 321 318 318 318 318 317 318 321 320 320 320 319 311 313 319 314 313 315 311 314 315 311 310
337 335 335 335 333 331 330 330 329 328 329 344 341 328 336 340 328 328 322 324 327 324 327 323 323 319 318 320 318 316 315 317 325 322 314 315 311 306 308 317 318 313 310 307 305 308 306
341 341 340 339 337 335 334 332 330 330 336 341 333 332 340 342 324 324 324 323 324 323 323 324 322 322 322 318 316 316 317 323 322 319 317 317 310 308 310 314 316 309 309 306 307 307 299
350 344 345 342 339 338 337 334 331 330 337 346 336 324 334 341 338 328 323 321 322 328 323 322 320 321 318 313 315 312 315 320 321 316 316 314 303 299 297 303 310 306 305 302 299 298 301
349 349 349 347 344 343 341 339 335 332 341 343 339 330 333 324 324 325 323 320 317 316 323 324 319 318 315 310 310 309 314 316 318 317 314 309 300 300 298 300 301 299 298 296 292 293 294
355 355 351 348 348 347 345 343 341 337 341 343 333 333 335 331 328 324 322 319 318 317 316 314 313 315 315 310 309 305 308 309 307 311 307 307 300 302 299 300 298 296 295 293 291 292 292
351 352 353 356 357 357 355 352 350 347 350 346 342 340 335 330 325 322 322 320 317 318 318 318 315 312 309 311 311 310 308 306 304 304 304 303 303 303 299 306 305 299 299 296 296 299 297
359 358 360 1 1 359 358 357 355 357 2 5 355 348 335 325 328 326 325 324 322 322 314 316 320 315 320 320 316 313 309 305 304 302 301 300 302 303 300 305 297 308 314 310 307 307 305
4 2 2 1 1 1 2 3 5 7 11 15 8 2 356 345 342 341 335 332 331 329 326 324 328 328 325 324 318 316 317 316 318 320 316 308 304 303 301 299 301 306 310 312 308 306 312
8 5 4 4 7 7 8 7 6 3 4 13 6 8 2 353 346 347 340 339 335 333 332 332 333 335 334 327 323 316 313 316 315 317 325 322 313 303 305 302 302 312 317 319 315 303 309
13 11 10 7 5 5 2 1 0 1 3 14 10 6 4 355 356 353 345 342 344 339 333 334 335 334 341 328 321 319 317 320 314 314 315 315 314 307 304 301 305 317 324 325 307 309 316
9 6 4 2 360 359 359 358 357 358 360 11 11 8 6 358 358 356 356 349 346 342 334 337 335 336 334 328 324 322 318 319 317 317 316 313 311 308 307 305 302 318 317 307 312 318 317
3 0 358 357 356 355 356 358 359 1 4 15 7 12 15 1 356 8 5 6 356 353 344 343 339 339 339 331 328 327 320 320 318 313 323 315 315 313 311 307 312 317 313 317 319 320 319